Weather History for KAFF - August, 2013

Change the Weather History Date:

Sunday, August 18, 2013

  Actual Average (WUND) Record (WUND)
Temperature  
Mean Temperature 70 °F -  
Max Temperature 88 °F - - (-1)
Min Temperature 54 °F - - (-1)
Cooling Degree Days 5    
Growing Degree Days 20 (Base 50)    
Moisture  
Dew Point 46 °F    
Average Humidity 44    
Maximum Humidity 89    
Minimum Humidity 15    
Precipitation  
Precipitation 0.01 in - - ()
Sea Level Pressure  
Sea Level Pressure 30.04 in    
Wind  
Wind Speed 7 mph (NNE)    
Max Wind Speed 16 mph    
Max Gust Speed 41 mph    
Visibility 10 miles    
Events Rain , Thunderstorm    
Averages and records for this station are not official NWS values.
T = Trace of Precipitation, MM = Missing Value Source: NWS Daily Summary

Daily Weather History Graph

Daily Weather History Graph

Search for Another Location

Airport or City:

Trip Planner

Search our weather history database for the weather conditions in past years. The results will help you decide how hot, cold, wet, or windy it might be!

Date:

Astronomy

Aug. 18, 2013 Rise Set
Actual Time 6:15 AM MDT 7:49 PM MDT
Civil Twilight 5:47 AM MDT 8:17 PM MDT
Nautical Twilight 5:13 AM MDT 8:51 PM MDT
Astronomical Twilight 4:37 AM MDT 9:27 PM MDT
Moon 5:57 PM MDT (8/18) 3:28 AM MDT (8/18)
Length of Visible Light 14h 30m
Length of Day
13h 33m
Waxing Gibbous, 92% of the Moon is Illuminated
Aug 18
Waxing Gibbous
Aug 20
Full
Aug 28
Last Quarter
Sep 5
New
Sep 12
First Quarter

Hourly Weather History & Observations

Time (MDT) Temp. Dew Point Humidity Pressure Visibility Wind Dir Wind Speed Gust Speed Precip Events Conditions
12:58 AM 65.1 °F 54.3 °F 68% 29.97 in 10.0 mi South 5.8 mph - N/A   Mostly Cloudy
1:58 AM 63.3 °F 54.5 °F 73% 29.96 in 10.0 mi NNE 2.3 mph - N/A   Scattered Clouds
2:58 AM 58.3 °F 53.1 °F 83% 29.95 in 10.0 mi North 6.9 mph - N/A   Scattered Clouds
3:58 AM 55.8 °F 52.5 °F 89% 29.94 in 10.0 mi North 6.9 mph - N/A   Clear
4:58 AM 54.1 °F 50.9 °F 89% 29.95 in 10.0 mi North 8.1 mph - N/A   Clear
5:58 AM 56.5 °F 52.0 °F 85% 29.94 in 10.0 mi North 6.9 mph - N/A   Partly Cloudy
6:58 AM 64.8 °F 48.4 °F 55% 29.95 in 10.0 mi WNW 5.8 mph - N/A   Partly Cloudy
7:58 AM 70.0 °F 44.8 °F 40% 29.96 in 10.0 mi North 5.8 mph - N/A   Clear
8:58 AM 79.2 °F 39.4 °F 24% 29.94 in 10.0 mi NNW 3.5 mph - N/A   Clear
9:58 AM 83.8 °F 35.1 °F 17% 29.92 in 10.0 mi North 9.2 mph - N/A   Clear
10:58 AM 86.4 °F 33.8 °F 15% 29.92 in 10.0 mi NE 10.4 mph - N/A   Clear
11:58 AM 83.3 °F 52.0 °F 34% 29.93 in 10.0 mi SSW 10.4 mph - N/A   Partly Cloudy
12:45 PM 82.4 °F 48.2 °F 30% 30.23 in 10.0 mi South 12.7 mph - N/A Thunderstorm Thunderstorm
12:58 PM 83.1 °F 44.4 °F 26% 29.93 in 10.0 mi South 8.1 mph 20.7 mph N/A Thunderstorm Thunderstorm
1:04 PM 82.4 °F 44.6 °F 26% 30.23 in 10.0 mi South 8.1 mph - N/A   Scattered Clouds
1:37 PM 82.4 °F 32.0 °F 16% 30.22 in 10.0 mi South 15.0 mph 41.4 mph N/A Thunderstorm Clear
1:58 PM 85.6 °F 33.3 °F 15% 29.92 in 10.0 mi West 8.1 mph - N/A Thunderstorm Partly Cloudy
2:26 PM 84.2 °F 41.0 °F 22% 30.22 in 10.0 mi NNE 16.1 mph 21.9 mph N/A   Scattered Clouds
2:58 PM 83.5 °F 36.3 °F 19% 29.94 in 10.0 mi ENE 6.9 mph - N/A   Scattered Clouds
3:58 PM 85.5 °F 38.5 °F 19% 29.93 in 10.0 mi South 10.4 mph - N/A   Partly Cloudy
4:58 PM 80.2 °F 43.9 °F 28% 29.96 in 10.0 mi ESE 11.5 mph - N/A   Mostly Cloudy
5:02 PM 78.8 °F 44.6 °F 30% 30.23 in 10.0 mi ESE 10.4 mph - N/A Rain Light Rain
5:14 PM 75.2 °F 46.4 °F 36% 30.23 in 10.0 mi East 10.4 mph 29.9 mph N/A   Scattered Clouds
5:35 PM 73.4 °F 50.0 °F 44% 30.27 in 10.0 mi WNW 9.2 mph - N/A Rain Light Rain
5:58 PM 70.2 °F 49.1 °F 47% 30.05 in 10.0 mi South 5.8 mph - 0.01 in Rain Light Rain
6:03 PM 71.6 °F 48.2 °F 43% 30.28 in 10.0 mi SW 13.8 mph 18.4 mph N/A Rain Light Rain
6:13 PM 69.8 °F 48.2 °F 46% 30.28 in 10.0 mi Variable 1.2 mph 18.4 mph N/A Rain Light Rain
6:18 PM 69.8 °F 51.8 °F 53% 30.27 in 10.0 mi SE 3.5 mph - N/A   Scattered Clouds
6:58 PM 70.3 °F 57.4 °F 63% 30.00 in 10.0 mi North 6.9 mph - 0.00 in   Clear
7:58 PM 68.7 °F 50.9 °F 53% 30.00 in 10.0 mi NNW 6.9 mph - N/A   Mostly Cloudy
8:58 PM 65.8 °F 50.2 °F 57% 29.99 in 10.0 mi North 8.1 mph - N/A   Partly Cloudy
9:58 PM 65.8 °F 48.2 °F 53% 29.99 in 10.0 mi North 8.1 mph - N/A   Scattered Clouds
10:58 PM 64.4 °F 48.9 °F 57% 29.99 in 10.0 mi North 2.3 mph - N/A   Mostly Cloudy
11:58 PM 67.6 °F 46.9 °F 47% 30.02 in 10.0 mi Variable 6.9 mph - N/A   Clear